User: anonymous   Login
Location: ?
(35.4214°N, 139.3011°E)
Time: 21:31:40
(UTC+00:00)
Language:

Ariane Rocket - Orbit

View from above orbital plane
View from above orbital plane
View from above satellite
View from above satellite

Ground track
Ground track

The orbit data is extracted from the following two-line orbital elements,

1 23561U 95021B   20270.40715978  .00000024  00000-0  23067-4 0  9994
2 23561  98.7152 311.1011 0006113 322.1352  48.5601 14.37983417333301
Epoch (UTC): 26 September 2020 09:46:18
Eccentricity: 0.0006113
inclination: 98.7152°
perigee height: 761 km
apogee height: 769 km
right ascension of ascending node: 311.1011°
argument of perigee: 322.1352°
revolutions per day: 14.37983417
mean anomaly at epoch: 48.5601°
orbit number at epoch: 33330

The dashed part of the orbit path shows where the satellite is in the earth's shadow,  

DLR